CZ-4C DEB, 43280

Orbit data source: Space-Track

CZ-4C DEB, 43280 is space debris in LEO originally from a launch on Tue, 10 Apr 2018 UTC launched from the Jiuquan Satellite Launch Center, China (JSC). Debris objects in space refer to the collection of defunct objects orbiting the Earth. Examples of debris include non-operational satellites, rocket bodies, and fragments generated from explosions, collisions, or faulty payload assembly.

Loading next visibility...
Identifier
43280, 2018-034F
Orbit
LEO
Country
Flag of CNCN / PRC
Related business
Manufacturer
Unknown
Mission
Spacecraft
Bus & Motor
Unknown
Mass
Unknown
Launch date (UTC)
2018-04-10 (8 years ago)
Launch vehicle
Unknown
Launch site
Jiuquan Satellite Launch Center, China (JSC)
Object type
Payload
Rocket body
Debris
Shape & HBR
Unknown shape, 2.3 m
Radar Cross Section
Large (>1 m²)

Expand to show TLE details & history
Last TLE update: 7 hours ago

TLE from 7 hours ago
0 CZ-4C DEB
1 43280U 18034F   26123.55909810 -.00000001  00000-0  12367-3 0  9998
2 43280  63.3973 223.4521 0266407   7.0099 353.4536 13.44406851395843
Epoch: 2026-05-03T13:25Z
TLE epoch observation values (Epoch: 2026-05-03T13:25:06.075Z)
Latitude
-0.00004°
Longitude
160.71585°
Altitude
896.991 km
Speed
7.501 km/s
True Right ascension
14h 53m 48s
True Declination
0° 00' 00"
Sunlit
Object was in full shadow at epoch
Visualization orbit readout
Latitude
Unknown
Longitude
Unknown
Altitude
Unknown
Speed
Unknown
Apparent Right ascension
Unknown
Apparent Declination
Unknown
Sunlit
N/A
Visualization observer readout
Local Sidereal Time
03:50:25
Azimuth
Unknown
Elevation
Unknown
Doppler factor
Unknown
Orbital elements
Apogee altitude
1,290.74 km
Perigee altitude
892.735 km
Semi-major axis
7,469.874 km
Eccentricity
0.02664
Inclination
63.3973°
RAAN
223.4521°
Arg. of periapsis
7.0099°
True anomaly
353.09367°
Mean anomaly
353.4536°
Eccentric anomaly
353.27485°
Mean motion
3.36181 °/min
Orbital period
107.09 mins
BSTAR
0.00012367
Loading maneuver chart data...
Computing Atmospheric mass density...
Loading historical data...
Loading historical data...
Loading historical data...
Loading historical data...
Loading historical data...
Loading historical data...
Loading historical data...

Documentation

Showing up to 5 results
|